Location: Alincthun
(50.7310°N, 1.8022°E)
Time: 07:56:55
(UTC+00:00)

Cosmos 1934 Rocket - Pass Details

Date: 17 February 2020
Orbit: 939 x 998 km, 83.0° (Epoch: 30 March)

Event Time Altitude Azimuth Distance (km) Brightness Sun altitude
Rises 03:42:31 0° 351° (N) 3,683 7.2 -31.9°
Reaches altitude 10° 03:45:03 10° 353° (N) 2,740 6.5 -31.5°
Maximum altitude 03:51:21 75° 79° (E) 1,027 4.1 -30.6°
Drops below altitude 10° 03:57:41 10° 165° (SSE) 2,754 6.3 -29.6°
Sets 04:00:13 0° 167° (SSE) 3,703 7.0 -29.2°
